Location: Kumla
(59.1265°N, 15.1401°E)
Time: 15:52:34
(UTC+01:00)

Vanguard 2 Rocket - All Passes

Search period start: 03 December 2023 00:00
Search period end: 13 December 2023 00:00
Orbit: 553 x 3312 km, 32.9° (Epoch: 03 December)

Date Brightness Start Highest point End Pass type
(mag) Time Alt. Az. Time Alt. Az. Time Alt. Az.
03 Dec - 14:19:53 10° S 14:31:59 21° SSE 14:44:05 10° ESE daylight
03 Dec - 16:30:33 10° SW 16:45:26 28° S 16:58:53 10° SE visible
03 Dec - 18:45:16 10° WSW 18:58:52 24° SSW 19:10:09 10° SSE visible
03 Dec - 21:05:31 10° WSW 21:10:45 12° SW 21:15:29 10° SSW visible
04 Dec - 13:20:07 10° S 13:29:44 16° SE 13:39:46 10° ESE daylight
04 Dec - 15:28:27 10° SSW 15:42:45 26° SSE 15:56:36 10° ESE visible
04 Dec - 17:41:43 10° WSW 17:56:27 27° SSW 18:09:15 10° SE visible
04 Dec - 19:58:54 10° WSW 20:09:08 17° SW 20:17:52 10° S visible
05 Dec - 12:22:56 10° SSE 12:27:49 12° SE 12:32:54 10° ESE daylight
05 Dec - 14:27:05 10° SSW 14:40:10 24° SSE 14:53:39 10° ESE daylight
05 Dec - 16:38:48 10° SW 16:53:49 28° S 17:07:43 10° SE visible
05 Dec - 18:54:13 10° WSW 19:07:07 22° SSW 19:18:14 10° SSE visible
06 Dec - 13:26:36 10° S 13:37:47 20° SSE 13:49:52 10° ESE daylight
06 Dec - 15:36:32 10° SW 15:51:05 28° S 16:05:33 10° SE visible
06 Dec - 17:50:27 10° WSW 18:04:45 26° SSW 18:17:36 10° SSE visible
06 Dec - 20:09:07 10° WSW 20:17:10 14° SW 20:24:25 10° SSW visible
07 Dec - 12:27:25 10° SSE 12:35:44 15° SE 12:44:50 10° ESE daylight
07 Dec - 14:34:53 10° SSW 14:48:24 26° SSE 15:02:46 10° ESE daylight
07 Dec - 16:47:23 10° WSW 17:02:09 28° S 17:16:14 10° SE visible
07 Dec - 19:03:37 10° WSW 19:15:15 19° SSW 19:25:41 10° S visible
08 Dec - 13:34:00 10° SSW 13:45:56 23° SSE 13:59:17 10° ESE daylight
08 Dec - 15:44:57 10° SW 15:59:24 29° S 16:14:13 10° SE visible
08 Dec - 17:59:30 10° WSW 18:12:59 23° SSW 18:25:29 10° SSE visible
08 Dec - 20:21:53 10° WSW 20:25:03 11° SW 20:28:08 10° SW visible
09 Dec - 12:34:02 10° S 12:43:46 19° SE 12:54:55 10° ESE daylight
09 Dec - 14:43:09 10° SW 14:56:41 28° S 15:11:33 10° ESE daylight
09 Dec - 16:56:16 10° WSW 17:10:26 26° SSW 17:24:23 10° SSE visible
09 Dec - 19:13:43 10° WSW 19:23:16 16° SW 19:32:12 10° S visible
10 Dec - 11:35:40 10° SSE 11:41:57 13° SE 11:49:01 10° ESE daylight
10 Dec - 13:41:59 10° SSW 13:54:09 25° SSE 14:08:16 10° ESE daylight
10 Dec - 15:53:41 10° SW 16:07:44 28° S 16:22:32 10° SE visible
10 Dec - 18:08:59 10° WSW 18:21:06 20° SSW 18:32:46 10° S visible
11 Dec - 12:41:33 10° SSW 12:51:53 21° SSE 13:04:15 10° ESE daylight
11 Dec - 14:51:45 10° SW 15:05:02 28° S 15:20:02 10° SE daylight
11 Dec - 17:05:27 10° WSW 17:18:41 24° SSW 17:32:04 10° SSE visible
11 Dec - 19:25:32 10° WSW 19:31:11 12° SW 19:36:41 10° SSW visible
12 Dec - 11:42:10 10° S 11:50:01 16° SE 11:59:18 10° ESE daylight
12 Dec - 13:50:24 10° SW 14:02:28 26° SSE 14:16:54 10° ESE daylight
12 Dec - 16:02:43 10° WSW 16:16:03 26° SSW 16:30:29 10° SSE visible
12 Dec - 18:19:08 10° WSW 18:29:10 17° SW 18:39:05 10° S visible
